Regional Weather Roundup
Issued by NWS

Home | Current Version | Previous Version | Graphics & Text | Print | Product List | Glossary On
Versions: 1 2 3 4 5 6 7 8 9 10 11 12 13 14 15 16 17 18 19 20 21 22 23 24 25 26 27 28 29 30 31 32 33 34 35 36 37 38 39 40 41 42 43 44 45 46 47 48 49 50
000
ASUS43 KIND 282009
RWRIN

WEATHER ROUNDUP FOR INDIANA
NATIONAL WEATHER SERVICE INDIANAPOLIS IN
400 PM EDT THU AUG 28 2014

NOTE: "FAIR" INDICATES FEW OR NO CLOUDS BELOW 12,000 FEET WITH NO
SIGNIFICANT WEATHER AND/OR OBSTRUCTIONS TO VISIBILITY.

* - STATION DOES NOT REPORT WEATHER SUCH AS PRECIPITATION OR FOG.

+ - STATION NOT QUALITY CONTROLLED BY THE NATIONAL WEATHER SERVICE.
    USE DATA WITH CAUTION...ESPECIALLY DEWPOINT AND RELATIVE
    HUMIDITY OBSERVATIONS.

INZ001>003-010>013-019-020-282100-
NORTHWEST INDIANA

CITY           SKY/WX    TMP DP  RH WIND       PRES   REMARKS
GARY /AIRPORT/ MOSUNNY   75  63  64 NE8       30.09F
KNOX *+        PTSUNNY   79  60  52 SE5       30.07F
LA PORTE +     MOSUNNY   78  61  55 SE5       30.09F
MICHIGAN CITY+ MOSUNNY   73  63  68 N10       30.08F
MONTICELLO +   MOSUNNY   80  65  60 E3        30.05F
RENSSELAER +   SUNNY     79  66  65 E7        30.06F
VALPARAISO     MOSUNNY   79  62  56 E6        30.08F

$$

LMZ046-743>745-282100-
SOUTHERN LAKE MICHIGAN

STATION/POSITION TIME  TEMP WIND        PRES
                       AIR  DIR/SP/G
                 (UTC) (F)  (DEG/KT/KT) (MB)
MICHIGAN CITY    2000   69   10/ 12/ 14   N/A

$$

INZ004-005-014>016-021>024-282100-
NORTH CENTRAL INDIANA

CITY           SKY/WX    TMP DP  RH WIND       PRES   REMARKS
ELKHART        SUNNY     79  57  47 E5        30.09
GOSHEN         SUNNY     80  61  52 E6        30.09F
LOGANSPORT +   MOSUNNY   79  63  57 E7        30.08S
PERU/GRISSOM   MOSUNNY   80  68  65 E5        30.07F
ROCHESTER +    PTSUNNY   81  64  57 E6        30.08F
SOUTH BEND     MOSUNNY   78  59  51 SE6       30.09F
WARSAW +       MOSUNNY   77  63  61 SE5       30.09F

$$

INZ006>009-017-018-025>027-282100-
NORTHEAST INDIANA

CITY           SKY/WX    TMP DP  RH WIND       PRES   REMARKS
ANGOLA *+      SUNNY     79  73  83 SW5       30.10F
AUBURN +       MOSUNNY   81  55  41 E7        30.10F
FORT WAYNE     PTSUNNY   77  63  61 E6        30.10F
HUNTINGTON +   MOSUNNY   76  65  67 E6        30.09S

$$

INZ028-029-035-036-043>045-051>053-282100-
WEST CENTRAL INDIANA

CITY           SKY/WX    TMP DP  RH WIND       PRES   REMARKS
GREENCASTLE +  SUNNY     81  68  65 CALM      30.05F
LAFAYETTE      SUNNY     81  64  56 VRB6      30.05F
TERRE HAUTE    SUNNY     84  63  49 E5        30.03F

$$

INZ030>032-037>040-046>048-054>057-064-065-282100-
CENTRAL INDIANA

CITY           SKY/WX    TMP DP  RH WIND       PRES   REMARKS
ANDERSON       SUNNY     81  61  50 CALM      30.08
CP ATTERBURY + SUNNY     84  66  54 CALM      30.05F
COLUMBUS       MOSUNNY   84  66  54 E5        30.04F
FRANKFORT +    SUNNY     81  63  55 E6        30.08S
INDIANAPOLIS   MOSUNNY   82  63  52 E3        30.04F
-EAGLE CREEK   MOSUNNY   83  63  50 E5        30.04F
KOKOMO *+      MOSUNNY   81  64  57 NE6       30.07F
MARION +       PTSUNNY   79  62  55 E6        30.08F
MT COMFORT *+  SUNNY     82  61  47 E6        30.06F
SHELBYVILLE    MOSUNNY   84  68  58 E5        30.05F
ZIONSVILLE +   MOSUNNY   83  64  53 NE6       30.07F

$$

INZ033-034-041-042-049-050-058-059-282100-
EAST CENTRAL INDIANA

CITY           SKY/WX    TMP DP  RH WIND       PRES   REMARKS
MUNCIE         SUNNY     80  63  55 E8        30.08F

$$

INZ060-061-067>069-081>083-085>088-282100-
SOUTHWEST INDIANA

CITY           SKY/WX    TMP DP  RH WIND       PRES   REMARKS
EVANSVILLE     MOSUNNY   91  72  53 VRB7      29.98F HX  98
WASHINGTON +   SUNNY     88  72  58 E6        30.00F

$$

INZ062-063-066-070>080-084-089>092-282100-
SOUTH CENTRAL AND SOUTHEAST INDIANA

CITY           SKY/WX    TMP DP  RH WIND       PRES   REMARKS
BLOOMINGTON    MOSUNNY   86  67  52 E6        30.03F

$$




USA.gov is the U.S. government's official web portal to all federal, state and local government web resources and services.